Year,Month,Day,Hour,Minute,Value (Times are PST for windgust in km/hr)
2013,02,26,00,38,4.80
2013,02,26,00,39,9.60
2013,02,26,00,40,11.30
2013,02,26,00,41,11.30
2013,02,26,00,42,9.60
2013,02,26,00,43,6.40
2013,02,26,00,44,8.10
2013,02,26,00,45,6.40
2013,02,26,00,46,6.40
2013,02,26,00,47,6.40
2013,02,26,00,48,3.20
2013,02,26,00,49,3.20
2013,02,26,00,50,4.80
2013,02,26,00,51,1.60
2013,02,26,01,01,1.60
2013,02,26,01,02,3.20
2013,02,26,01,03,4.80
2013,02,26,01,04,6.40
2013,02,26,01,05,6.40
2013,02,26,01,06,4.80
2013,02,26,01,07,4.80
2013,02,26,01,08,4.80
2013,02,26,01,09,3.20
2013,02,26,01,10,4.80
2013,02,26,01,11,6.40
2013,02,26,01,12,6.40
2013,02,26,01,13,3.20
2013,02,26,01,14,3.20
2013,02,26,01,15,1.60
2013,02,26,01,16,4.80
2013,02,26,01,17,6.40
2013,02,26,01,18,3.20
2013,02,26,01,19,4.80
2013,02,26,01,20,4.80
2013,02,26,01,21,9.60
2013,02,26,01,22,4.80
2013,02,26,01,23,3.20
2013,02,26,01,24,6.40
2013,02,26,01,25,4.80
2013,02,26,01,26,3.20
2013,02,26,01,27,6.40
2013,02,26,01,28,6.40
2013,02,26,01,29,8.10
2013,02,26,01,30,3.20
2013,02,26,01,31,3.20
2013,02,26,01,32,8.10
2013,02,26,01,33,6.40
2013,02,26,01,34,8.10
2013,02,26,01,35,9.60
2013,02,26,01,36,8.10
2013,02,26,01,37,8.10
2013,02,26,01,38,9.60
2013,02,26,01,39,8.10
2013,02,26,01,40,9.60
2013,02,26,01,41,8.10
2013,02,26,01,42,6.40
2013,02,26,01,43,8.10
2013,02,26,01,44,14.50
2013,02,26,01,45,14.50
2013,02,26,01,46,9.60
2013,02,26,01,47,9.60
2013,02,26,01,48,11.30
2013,02,26,01,49,17.70
2013,02,26,01,50,9.60
2013,02,26,01,51,12.90
2013,02,26,01,52,8.10
2013,02,26,01,53,8.10
2013,02,26,01,54,6.40
2013,02,26,01,55,11.30
2013,02,26,01,56,6.40
2013,02,26,01,57,9.60
2013,02,26,01,58,11.30
2013,02,26,01,59,9.60
2013,02,26,02,00,8.10
2013,02,26,02,01,11.30
2013,02,26,02,02,9.60
2013,02,26,02,03,6.40
2013,02,26,02,04,6.40
2013,02,26,02,05,6.40
2013,02,26,02,06,6.40
2013,02,26,02,07,6.40
2013,02,26,02,08,9.60
2013,02,26,02,09,8.10
2013,02,26,02,10,8.10
2013,02,26,02,11,8.10
2013,02,26,02,12,8.10
2013,02,26,02,13,9.60
2013,02,26,02,14,8.10
2013,02,26,02,15,8.10
2013,02,26,02,16,8.10
2013,02,26,02,17,6.40
2013,02,26,02,18,4.80
2013,02,26,02,19,6.40
2013,02,26,02,20,4.80
2013,02,26,02,21,6.40
2013,02,26,02,22,8.10
2013,02,26,02,23,6.40
2013,02,26,02,24,8.10
2013,02,26,02,25,8.10
2013,02,26,02,26,6.40
2013,02,26,02,27,4.80
2013,02,26,02,28,4.80
2013,02,26,02,29,8.10
2013,02,26,02,30,9.60
2013,02,26,02,31,6.40
2013,02,26,02,32,3.20
2013,02,26,02,33,8.10
2013,02,26,02,34,3.20
2013,02,26,02,35,6.40
2013,02,26,02,36,8.10
2013,02,26,02,37,6.40
2013,02,26,02,38,6.40
2013,02,26,02,39,6.40
2013,02,26,02,40,6.40
2013,02,26,02,41,6.40
2013,02,26,02,42,11.30
2013,02,26,02,43,9.60
2013,02,26,02,44,6.40
2013,02,26,02,45,4.80
2013,02,26,02,46,3.20
2013,02,26,02,47,4.80
2013,02,26,02,48,6.40
2013,02,26,02,49,4.80
2013,02,26,02,50,4.80
2013,02,26,02,51,1.60
2013,02,26,02,52,4.80
2013,02,26,02,53,4.80
2013,02,26,02,54,4.80
2013,02,26,02,55,6.40
2013,02,26,02,56,4.80
2013,02,26,02,57,4.80
2013,02,26,02,58,4.80
2013,02,26,02,59,8.10
2013,02,26,03,00,6.40
2013,02,26,03,01,6.40
2013,02,26,03,02,6.40
2013,02,26,03,03,4.80
2013,02,26,03,04,4.80
2013,02,26,03,05,4.80
2013,02,26,03,06,4.80
2013,02,26,03,07,4.80
2013,02,26,03,08,1.60
2013,02,26,03,09,4.80
2013,02,26,03,10,3.20
2013,02,26,03,11,4.80
2013,02,26,03,12,8.10
2013,02,26,03,13,4.80
2013,02,26,03,14,4.80
2013,02,26,03,15,3.20
2013,02,26,03,16,3.20
2013,02,26,03,17,1.60
2013,02,26,03,19,3.20
2013,02,26,03,20,3.20
2013,02,26,03,24,1.60
2013,02,26,03,42,1.60
2013,02,26,03,43,1.60
2013,02,26,03,46,3.20
2013,02,26,03,50,3.20
2013,02,26,03,51,3.20
2013,02,26,03,52,1.60
2013,02,26,03,53,1.60
2013,02,26,03,55,1.60
2013,02,26,03,56,3.20
2013,02,26,03,57,1.60
2013,02,26,03,59,3.20
2013,02,26,04,00,1.60
2013,02,26,04,01,1.60
2013,02,26,04,04,3.20
2013,02,26,04,05,3.20
2013,02,26,04,13,3.20
2013,02,26,04,14,3.20
2013,02,26,04,17,1.60
2013,02,26,04,18,3.20
2013,02,26,04,32,1.60
2013,02,26,04,33,1.60
2013,02,26,04,38,1.60
2013,02,26,04,39,3.20
2013,02,26,04,40,6.40
2013,02,26,04,41,6.40
2013,02,26,04,42,6.40
2013,02,26,04,43,1.60
2013,02,26,04,47,1.60
2013,02,26,04,48,3.20
2013,02,26,04,49,3.20
2013,02,26,04,51,1.60
2013,02,26,04,52,3.20
2013,02,26,04,54,1.60
2013,02,26,04,56,3.20
2013,02,26,04,57,3.20
2013,02,26,04,58,4.80
2013,02,26,04,59,4.80
2013,02,26,05,00,1.60
2013,02,26,05,01,3.20
2013,02,26,05,02,4.80
2013,02,26,05,03,3.20
2013,02,26,05,05,4.80
2013,02,26,05,06,6.40
2013,02,26,05,07,6.40
2013,02,26,05,08,6.40
2013,02,26,05,09,3.20
2013,02,26,05,10,3.20
2013,02,26,05,11,1.60
2013,02,26,07,03,1.60
2013,02,26,07,14,1.60
2013,02,26,07,21,1.60
2013,02,26,08,00,4.80
2013,02,26,08,01,3.20
2013,02,26,08,02,1.60
2013,02,26,08,04,3.20
2013,02,26,08,05,3.20
2013,02,26,08,37,1.60
2013,02,26,08,48,3.20
2013,02,26,08,52,8.10
2013,02,26,08,53,6.40
2013,02,26,08,54,6.40
2013,02,26,08,55,3.20
2013,02,26,08,57,3.20
2013,02,26,08,59,8.10
2013,02,26,09,00,6.40
2013,02,26,09,01,1.60
2013,02,26,09,02,4.80
2013,02,26,09,03,1.60
2013,02,26,09,04,1.60
2013,02,26,09,05,1.60
2013,02,26,09,06,9.60
2013,02,26,09,07,3.20
2013,02,26,09,08,9.60
2013,02,26,09,09,4.80
2013,02,26,09,11,6.40
2013,02,26,09,12,1.60
2013,02,26,09,17,4.80
2013,02,26,09,18,4.80
2013,02,26,09,19,4.80
2013,02,26,09,20,8.10
2013,02,26,09,21,4.80
2013,02,26,09,22,4.80
2013,02,26,09,23,1.60
2013,02,26,09,27,4.80
2013,02,26,09,28,6.40
2013,02,26,09,29,4.80
2013,02,26,09,30,8.10
2013,02,26,09,31,8.10
2013,02,26,09,32,6.40
2013,02,26,09,33,11.30
2013,02,26,09,34,11.30
2013,02,26,09,35,9.60
2013,02,26,09,36,8.10
2013,02,26,09,37,6.40
2013,02,26,09,38,6.40
2013,02,26,09,39,1.60
2013,02,26,09,40,4.80
2013,02,26,09,41,8.10
2013,02,26,09,42,4.80
2013,02,26,09,43,6.40
2013,02,26,09,44,4.80
2013,02,26,09,45,8.10
2013,02,26,09,46,8.10
2013,02,26,09,47,6.40
2013,02,26,09,49,4.80
2013,02,26,09,50,3.20
2013,02,26,09,51,8.10
2013,02,26,09,52,9.60
2013,02,26,09,53,6.40
2013,02,26,09,54,8.10
2013,02,26,09,55,6.40
2013,02,26,09,56,9.60
2013,02,26,09,57,11.30
2013,02,26,09,58,12.90
2013,02,26,09,59,9.60
2013,02,26,10,00,9.60
2013,02,26,10,01,8.10
2013,02,26,10,02,9.60
2013,02,26,10,03,6.40
2013,02,26,10,04,9.60
2013,02,26,10,05,3.20
2013,02,26,10,06,8.10
2013,02,26,10,07,9.60
2013,02,26,10,08,14.50
2013,02,26,10,09,8.10
2013,02,26,10,10,8.10
2013,02,26,10,11,11.30
2013,02,26,10,12,12.90
2013,02,26,10,13,14.50
2013,02,26,10,14,12.90
2013,02,26,10,15,11.30
2013,02,26,10,16,9.60
2013,02,26,10,17,16.10
2013,02,26,10,18,14.50
2013,02,26,10,19,11.30
2013,02,26,10,20,8.10
2013,02,26,10,21,9.60
2013,02,26,10,22,6.40
2013,02,26,10,23,14.50
2013,02,26,10,24,16.10
2013,02,26,10,25,9.60
2013,02,26,10,26,8.10
2013,02,26,10,27,6.40
2013,02,26,10,28,12.90
2013,02,26,10,29,16.10
2013,02,26,10,30,8.10
2013,02,26,10,31,12.90
2013,02,26,10,32,14.50
2013,02,26,10,33,12.90
2013,02,26,10,34,9.60
2013,02,26,10,35,9.60
2013,02,26,10,36,12.90
2013,02,26,10,37,11.30
2013,02,26,10,38,8.10
2013,02,26,10,39,9.60
2013,02,26,10,40,9.60
2013,02,26,10,41,8.10
2013,02,26,10,42,8.10
2013,02,26,10,43,11.30
2013,02,26,10,44,6.40
2013,02,26,10,45,9.60
2013,02,26,10,46,6.40
2013,02,26,10,47,14.50
2013,02,26,10,48,8.10
2013,02,26,10,49,8.10
2013,02,26,10,50,8.10
2013,02,26,10,51,8.10
2013,02,26,10,52,6.40
2013,02,26,10,53,6.40
2013,02,26,10,54,9.60
2013,02,26,10,55,6.40
2013,02,26,10,56,6.40
2013,02,26,10,57,9.60
2013,02,26,10,58,11.30
2013,02,26,10,59,14.50
2013,02,26,11,00,6.40
2013,02,26,11,01,6.40
2013,02,26,11,02,6.40
2013,02,26,11,03,6.40
2013,02,26,11,04,4.80
2013,02,26,11,05,6.40
2013,02,26,11,06,4.80
2013,02,26,11,07,6.40
2013,02,26,11,08,4.80
2013,02,26,11,09,14.50
2013,02,26,11,10,12.90
2013,02,26,11,11,11.30
2013,02,26,11,12,11.30
2013,02,26,11,13,8.10
2013,02,26,11,14,9.60
2013,02,26,11,15,9.60
2013,02,26,11,16,9.60
2013,02,26,11,17,4.80
2013,02,26,11,18,3.20
2013,02,26,11,19,4.80
2013,02,26,11,21,8.10
2013,02,26,11,22,6.40
2013,02,26,11,23,9.60
2013,02,26,11,24,4.80
2013,02,26,11,25,6.40
2013,02,26,11,26,6.40
2013,02,26,11,27,8.10
2013,02,26,11,28,14.50
2013,02,26,11,29,14.50
2013,02,26,11,30,9.60
2013,02,26,11,31,9.60
2013,02,26,11,32,6.40
2013,02,26,11,33,4.80
2013,02,26,11,34,6.40
2013,02,26,11,35,8.10
2013,02,26,11,36,14.50
2013,02,26,11,37,12.90
2013,02,26,11,38,11.30
2013,02,26,11,39,14.50
2013,02,26,11,40,12.90
2013,02,26,11,41,9.60
2013,02,26,11,42,16.10
2013,02,26,11,43,12.90
2013,02,26,11,44,9.60
2013,02,26,11,45,9.60
2013,02,26,11,46,6.40
2013,02,26,11,47,9.60
2013,02,26,11,48,9.60
2013,02,26,11,49,6.40
2013,02,26,11,50,8.10
2013,02,26,11,51,12.90
2013,02,26,11,52,8.10
2013,02,26,11,53,4.80
2013,02,26,11,54,9.60
2013,02,26,11,55,9.60
2013,02,26,11,56,6.40
2013,02,26,11,57,1.60
2013,02,26,11,58,9.60
2013,02,26,11,59,6.40
2013,02,26,12,00,3.20
2013,02,26,12,01,6.40
2013,02,26,12,02,11.30
2013,02,26,12,03,8.10
2013,02,26,12,04,9.60
2013,02,26,12,05,12.90
2013,02,26,12,06,9.60
2013,02,26,12,07,8.10
2013,02,26,12,08,12.90
2013,02,26,12,09,9.60
2013,02,26,12,10,8.10
2013,02,26,12,11,6.40
2013,02,26,12,12,3.20
2013,02,26,12,13,11.30
2013,02,26,12,14,9.60
2013,02,26,12,15,6.40
2013,02,26,12,16,4.80
2013,02,26,12,17,6.40
2013,02,26,12,18,9.60
2013,02,26,12,19,3.20
2013,02,26,12,20,4.80
2013,02,26,12,21,8.10
2013,02,26,12,22,9.60
2013,02,26,12,23,8.10
2013,02,26,12,24,8.10
2013,02,26,12,25,4.80
2013,02,26,12,26,3.20
2013,02,26,12,27,4.80
2013,02,26,12,29,4.80
2013,02,26,12,30,4.80
2013,02,26,12,31,4.80
2013,02,26,12,32,1.60
2013,02,26,12,33,1.60
2013,02,26,12,34,14.50
2013,02,26,12,35,8.10
2013,02,26,12,36,9.60
2013,02,26,12,37,3.20
2013,02,26,12,38,1.60
2013,02,26,12,41,3.20
2013,02,26,12,42,3.20
2013,02,26,12,43,6.40
2013,02,26,12,44,4.80
2013,02,26,12,45,4.80
2013,02,26,12,46,4.80
2013,02,26,12,47,4.80
2013,02,26,12,48,4.80
2013,02,26,12,49,6.40
2013,02,26,12,50,4.80
2013,02,26,12,51,4.80
2013,02,26,12,53,3.20
2013,02,26,12,54,4.80
2013,02,26,12,55,6.40
2013,02,26,12,56,4.80
2013,02,26,12,57,11.30
2013,02,26,12,58,11.30
2013,02,26,12,59,9.60
2013,02,26,13,00,8.10
2013,02,26,13,01,9.60
2013,02,26,13,02,3.20
2013,02,26,13,03,6.40
2013,02,26,13,04,6.40
2013,02,26,13,05,4.80
2013,02,26,13,06,8.10
2013,02,26,13,07,9.60
2013,02,26,13,08,9.60
2013,02,26,13,09,6.40
2013,02,26,13,10,4.80
2013,02,26,13,11,1.60
2013,02,26,13,12,3.20
2013,02,26,13,13,6.40
2013,02,26,13,14,6.40
2013,02,26,13,15,1.60
2013,02,26,13,16,8.10
2013,02,26,13,17,4.80
2013,02,26,13,18,6.40
2013,02,26,13,19,8.10
2013,02,26,13,20,8.10
2013,02,26,13,21,9.60
2013,02,26,13,22,11.30
2013,02,26,13,23,8.10
2013,02,26,13,24,11.30
2013,02,26,13,25,8.10
2013,02,26,13,26,6.40
2013,02,26,13,27,8.10
2013,02,26,13,28,9.60
2013,02,26,13,29,11.30
2013,02,26,13,30,12.90
2013,02,26,13,31,6.40
2013,02,26,13,32,9.60
2013,02,26,13,33,9.60
2013,02,26,13,34,9.60
2013,02,26,13,35,12.90
2013,02,26,13,36,16.10
2013,02,26,13,37,9.60
2013,02,26,13,38,8.10
2013,02,26,13,39,4.80
2013,02,26,13,40,4.80
2013,02,26,13,41,3.20
2013,02,26,13,42,4.80
2013,02,26,13,43,4.80
2013,02,26,13,44,4.80
2013,02,26,13,45,4.80
2013,02,26,13,46,8.10
2013,02,26,13,47,6.40
2013,02,26,13,48,4.80
2013,02,26,13,49,4.80
2013,02,26,13,50,8.10
2013,02,26,13,51,6.40
2013,02,26,13,52,3.20
2013,02,26,13,53,6.40
2013,02,26,13,54,8.10
2013,02,26,13,55,8.10
2013,02,26,13,56,8.10
2013,02,26,13,57,8.10
2013,02,26,13,58,8.10
2013,02,26,13,59,6.40
2013,02,26,14,00,3.20
2013,02,26,14,01,6.40
2013,02,26,14,02,8.10
2013,02,26,14,03,9.60
2013,02,26,14,04,11.30
2013,02,26,14,05,4.80
2013,02,26,14,06,9.60
2013,02,26,14,07,8.10
2013,02,26,14,08,6.40
2013,02,26,14,09,9.60
2013,02,26,14,10,8.10
2013,02,26,14,11,6.40
2013,02,26,14,12,1.60
2013,02,26,14,13,3.20
2013,02,26,14,14,6.40
2013,02,26,14,15,6.40
2013,02,26,14,16,6.40
2013,02,26,14,17,9.60
2013,02,26,14,18,9.60
2013,02,26,14,19,8.10
2013,02,26,14,20,6.40
2013,02,26,14,21,1.60
2013,02,26,14,22,4.80
2013,02,26,14,23,4.80
2013,02,26,14,24,3.20
2013,02,26,14,25,4.80
2013,02,26,14,26,1.60
2013,02,26,14,27,1.60
2013,02,26,14,29,1.60
2013,02,26,14,30,3.20
2013,02,26,14,31,6.40
2013,02,26,14,32,4.80
2013,02,26,14,33,3.20
2013,02,26,14,34,1.60
2013,02,26,14,35,1.60
2013,02,26,14,36,6.40
2013,02,26,14,37,8.10
2013,02,26,14,38,4.80
2013,02,26,14,39,4.80
2013,02,26,14,40,3.20
2013,02,26,14,41,4.80
2013,02,26,14,42,1.60
2013,02,26,14,43,4.80
2013,02,26,14,44,6.40
2013,02,26,14,45,6.40
2013,02,26,14,46,6.40
2013,02,26,14,47,1.60
2013,02,26,14,48,4.80
2013,02,26,14,49,1.60
2013,02,26,14,50,6.40
2013,02,26,14,51,1.60
2013,02,26,14,52,4.80
2013,02,26,14,53,6.40
2013,02,26,14,54,4.80
2013,02,26,14,55,3.20
2013,02,26,14,56,6.40
2013,02,26,14,59,4.80
2013,02,26,15,00,8.10
2013,02,26,15,01,8.10
2013,02,26,15,02,3.20
2013,02,26,15,03,1.60
2013,02,26,15,06,4.80
2013,02,26,15,07,4.80
2013,02,26,15,08,8.10
2013,02,26,15,09,1.60
2013,02,26,15,10,4.80
2013,02,26,15,11,3.20
2013,02,26,15,12,3.20
2013,02,26,15,13,6.40
2013,02,26,15,14,1.60
2013,02,26,15,15,4.80
2013,02,26,15,16,6.40
2013,02,26,15,17,8.10
2013,02,26,15,19,3.20
2013,02,26,15,20,4.80
2013,02,26,15,21,4.80
2013,02,26,15,22,9.60
2013,02,26,15,23,11.30
2013,02,26,15,24,9.60
2013,02,26,15,25,8.10
2013,02,26,15,26,9.60
2013,02,26,15,27,6.40
2013,02,26,15,28,8.10
2013,02,26,15,29,8.10
2013,02,26,15,30,8.10
2013,02,26,15,31,9.60
2013,02,26,15,32,9.60
2013,02,26,15,33,9.60
2013,02,26,15,34,6.40
2013,02,26,15,35,6.40
2013,02,26,15,36,8.10
2013,02,26,15,37,4.80
2013,02,26,15,38,3.20
2013,02,26,15,39,6.40
2013,02,26,15,40,8.10
2013,02,26,15,41,8.10
2013,02,26,15,42,8.10
2013,02,26,15,43,4.80
2013,02,26,15,44,6.40
2013,02,26,15,45,4.80
2013,02,26,15,46,1.60
2013,02,26,15,47,8.10
2013,02,26,15,49,6.40
2013,02,26,15,50,4.80
2013,02,26,15,51,3.20
2013,02,26,15,52,4.80
2013,02,26,15,53,3.20
2013,02,26,15,54,4.80
2013,02,26,15,55,4.80
2013,02,26,15,56,1.60
2013,02,26,15,57,1.60
2013,02,26,16,00,1.60
2013,02,26,16,01,4.80
2013,02,26,16,02,3.20
2013,02,26,16,03,1.60
2013,02,26,16,04,6.40
2013,02,26,16,05,4.80
2013,02,26,16,06,3.20
2013,02,26,16,07,8.10
2013,02,26,16,09,4.80
2013,02,26,16,10,6.40
2013,02,26,16,11,3.20
2013,02,26,16,12,4.80
2013,02,26,16,13,4.80
2013,02,26,16,14,1.60
2013,02,26,16,15,3.20
2013,02,26,16,16,8.10
2013,02,26,16,17,4.80
2013,02,26,16,18,3.20
2013,02,26,16,19,6.40
2013,02,26,16,20,6.40
2013,02,26,16,21,6.40
2013,02,26,16,22,4.80
2013,02,26,16,23,3.20
2013,02,26,16,27,1.60
2013,02,26,16,29,1.60
2013,02,26,16,31,1.60
2013,02,26,16,39,1.60
2013,02,26,16,41,1.60
2013,02,26,16,42,3.20
2013,02,26,16,43,4.80
2013,02,26,16,46,1.60
2013,02,26,16,47,4.80
2013,02,26,16,48,1.60
2013,02,26,16,50,1.60
2013,02,26,16,51,3.20
2013,02,26,16,54,1.60
2013,02,26,16,55,1.60
2013,02,26,16,58,4.80
2013,02,26,16,59,3.20
2013,02,26,17,01,1.60
2013,02,26,17,02,1.60
2013,02,26,17,05,1.60
2013,02,26,17,07,1.60
2013,02,26,17,11,1.60
2013,02,26,17,18,1.60
2013,02,26,17,20,1.60
2013,02,26,17,26,1.60
2013,02,26,17,27,1.60
2013,02,26,17,32,3.20
2013,02,26,17,33,1.60
2013,02,26,17,34,6.40
2013,02,26,17,35,4.80
2013,02,26,17,36,3.20
2013,02,26,17,37,3.20
2013,02,26,17,38,1.60
2013,02,26,17,40,1.60
2013,02,26,17,41,1.60
2013,02,26,17,42,1.60
2013,02,26,17,43,1.60
2013,02,26,17,49,1.60
2013,02,26,17,51,1.60
2013,02,26,17,57,1.60
2013,02,26,18,08,1.60
2013,02,26,18,09,4.80
2013,02,26,18,11,1.60
2013,02,26,18,17,1.60
2013,02,26,18,20,1.60
2013,02,26,18,24,4.80
2013,02,26,18,27,3.20
2013,02,26,18,28,1.60
2013,02,26,18,29,1.60
2013,02,26,18,33,1.60
2013,02,26,18,34,1.60
2013,02,26,18,36,1.60
2013,02,26,18,38,1.60
2013,02,26,18,39,1.60
2013,02,26,18,41,1.60
2013,02,26,18,43,6.40
2013,02,26,18,44,3.20
2013,02,26,18,45,3.20
2013,02,26,18,46,6.40
2013,02,26,18,47,4.80
2013,02,26,18,48,4.80
2013,02,26,18,50,6.40
2013,02,26,18,51,4.80
2013,02,26,18,52,6.40
2013,02,26,18,53,4.80
2013,02,26,18,54,3.20
2013,02,26,18,55,3.20
2013,02,26,18,56,1.60
2013,02,26,18,57,3.20
2013,02,26,18,58,4.80
2013,02,26,19,00,3.20
2013,02,26,19,01,4.80
2013,02,26,19,02,4.80
2013,02,26,19,03,3.20
2013,02,26,19,04,4.80
2013,02,26,19,05,6.40
2013,02,26,19,06,6.40
2013,02,26,19,07,4.80
2013,02,26,19,08,4.80
2013,02,26,19,09,4.80
2013,02,26,19,10,4.80
2013,02,26,19,11,3.20
2013,02,26,19,12,4.80
2013,02,26,19,13,4.80
2013,02,26,19,14,3.20
2013,02,26,19,15,4.80
2013,02,26,19,16,3.20
2013,02,26,19,17,1.60
2013,02,26,19,19,1.60
2013,02,26,19,20,4.80
2013,02,26,19,21,4.80
2013,02,26,19,22,1.60
2013,02,26,19,23,1.60
2013,02,26,19,24,1.60
2013,02,26,19,25,3.20
2013,02,26,19,26,1.60
2013,02,26,19,28,3.20
2013,02,26,19,43,1.60
2013,02,26,19,45,3.20
2013,02,26,19,48,4.80
2013,02,26,19,49,3.20
2013,02,26,19,50,1.60
2013,02,26,19,51,1.60
2013,02,26,19,52,3.20
2013,02,26,19,54,4.80
2013,02,26,19,55,3.20
2013,02,26,19,56,3.20
2013,02,26,19,57,3.20
2013,02,26,19,58,4.80
2013,02,26,19,59,4.80
2013,02,26,20,00,3.20
2013,02,26,20,02,1.60
2013,02,26,20,03,1.60
2013,02,26,20,04,3.20
2013,02,26,20,06,4.80
2013,02,26,20,07,4.80
2013,02,26,20,08,1.60
2013,02,26,20,09,3.20
2013,02,26,20,10,4.80
2013,02,26,20,11,4.80
2013,02,26,20,13,4.80
2013,02,26,20,15,6.40
2013,02,26,20,16,3.20
2013,02,26,20,17,6.40
2013,02,26,20,18,1.60
2013,02,26,20,19,1.60
2013,02,26,20,21,1.60
2013,02,26,20,22,4.80
2013,02,26,20,23,3.20
2013,02,26,20,24,1.60
2013,02,26,20,26,3.20
2013,02,26,20,34,1.60
2013,02,26,20,37,1.60
2013,02,26,20,40,1.60
2013,02,26,20,50,1.60
2013,02,26,20,53,1.60
2013,02,26,20,54,3.20
2013,02,26,20,55,8.10
2013,02,26,20,59,1.60
2013,02,26,21,00,4.80
2013,02,26,21,01,4.80
2013,02,26,21,02,4.80
2013,02,26,21,03,1.60
2013,02,26,21,09,1.60
2013,02,26,21,11,1.60
2013,02,26,21,24,1.60
2013,02,26,21,25,4.80
2013,02,26,21,26,3.20
2013,02,26,21,27,3.20
2013,02,26,21,28,1.60
2013,02,26,21,29,3.20
2013,02,26,21,30,4.80
2013,02,26,21,31,6.40
2013,02,26,21,32,6.40
2013,02,26,21,33,3.20
2013,02,26,21,36,1.60
2013,02,26,21,37,6.40
2013,02,26,21,38,6.40
2013,02,26,21,39,8.10
2013,02,26,21,40,8.10
2013,02,26,21,41,6.40
2013,02,26,21,42,8.10
2013,02,26,21,43,9.60
2013,02,26,21,44,9.60
2013,02,26,21,45,6.40
2013,02,26,21,46,8.10
2013,02,26,21,47,9.60
2013,02,26,21,48,8.10
2013,02,26,21,49,8.10
2013,02,26,21,50,6.40
2013,02,26,21,51,6.40
2013,02,26,21,52,4.80
2013,02,26,21,53,6.40
2013,02,26,21,54,8.10
2013,02,26,21,55,6.40
2013,02,26,21,56,9.60
2013,02,26,21,57,6.40
2013,02,26,21,58,8.10
2013,02,26,21,59,11.30
2013,02,26,22,00,8.10
2013,02,26,22,01,11.30
2013,02,26,22,02,14.50
2013,02,26,22,03,3.20
2013,02,26,22,05,6.40
2013,02,26,22,06,6.40
2013,02,26,22,07,1.60
2013,02,26,22,09,4.80
2013,02,26,22,12,3.20
2013,02,26,22,13,4.80
2013,02,26,22,14,4.80
2013,02,26,22,15,4.80
2013,02,26,22,16,3.20
2013,02,26,22,17,6.40
2013,02,26,22,18,8.10
2013,02,26,22,19,8.10
2013,02,26,22,20,8.10
2013,02,26,22,21,12.90
2013,02,26,22,22,9.60
2013,02,26,22,23,8.10
2013,02,26,22,24,8.10
2013,02,26,22,25,9.60
2013,02,26,22,26,3.20
2013,02,26,22,27,6.40
2013,02,26,22,28,8.10
2013,02,26,22,29,6.40
2013,02,26,22,30,1.60
2013,02,26,22,34,6.40
2013,02,26,22,35,3.20
2013,02,26,22,36,3.20
2013,02,26,22,37,3.20
2013,02,26,22,38,6.40
2013,02,26,22,39,8.10
2013,02,26,22,40,6.40
2013,02,26,22,41,6.40
2013,02,26,22,43,3.20
2013,02,26,22,44,1.60
2013,02,26,22,51,3.20
2013,02,26,22,52,3.20
2013,02,26,22,53,3.20
2013,02,26,23,43,1.60
2013,02,26,23,44,6.40
2013,02,26,23,45,3.20
2013,02,26,23,53,1.60
